This is the latest recevied weather packets stored in our database for station/object SV4JYD-14. If no packets are shown the sender has not sent any weather packets the latest 10 day(s).
| Time | Temp. | Humidity | Pressure | Rain* | Wind** | Luminosity | Snow |
|---|---|---|---|---|---|---|---|
| 1777395996 | 19.44° C | 33% | 1015 hPa | 0 mm | - | - | - |
| 1777394194 | 20.56° C | 40% | 1015 hPa | 0 mm | - | - | - |
| 1777390592 | 21.67° C | 35% | 1015 hPa | 0 mm | - | - | - |
| 1777389692 | 21.67° C | 34% | 1015 hPa | 0 mm | - | - | - |
| 1777387892 | 21.67° C | 32% | 1015 hPa | 0 mm | - | - | - |
| 1777386991 | 21.67° C | 33% | 1015 hPa | 0 mm | - | - | - |
| 1777386091 | 21.67° C | 31% | 1016 hPa | 0 mm | - | - | - |
| 1777384291 | 21.67° C | 29% | 1015 hPa | 0 mm | - | - | - |
| 1777383391 | 21.67° C | 31% | 1015 hPa | 0 mm | - | - | - |
| 1777382490 | 21.67° C | 36% | 1016 hPa | 0 mm | - | - | - |
| 1777381590 | 21.11° C | 38% | 1015 hPa | 0 mm | - | - | - |
| 1777380691 | 21.67° C | 34% | 1015 hPa | 0 mm | - | - | - |
| 1777379789 | 21.67° C | 36% | 1015 hPa | 0 mm | - | - | - |
| 1777378889 | 21.67° C | 35% | 1016 hPa | 0 mm | - | - | - |
| 1777377989 | 21.67° C | 31% | 1017 hPa | 0 mm | - | - | - |
| 1777376188 | 21.11° C | 30% | 1016 hPa | 0 mm | - | - | - |
| 1777375288 | 20.56° C | 31% | 1017 hPa | 0 mm | - | - | - |
| 1777374388 | 21.11° C | 30% | 1017 hPa | 0 mm | - | - | - |
| 1777372586 | 21.11° C | 33% | 1016 hPa | 0 mm | - | - | - |
| 1777371686 | 19.44° C | 40% | 1017 hPa | 0 mm | - | - | - |
| 1777370786 | 20° C | 39% | 1017 hPa | 0 mm | - | - | - |
| 1777369885 | 19.44° C | 43% | 1017 hPa | 0 mm | - | - | - |
| 1777368985 | 18.89° C | 46% | 1017 hPa | 0 mm | - | - | - |
| 1777368085 | 18.33° C | 49% | 1018 hPa | 0 mm | - | - | - |
| 1777367185 | 18.33° C | 51% | 1017 hPa | 0 mm | - | - | - |
* Rain latest hour (hover to see other rain measurements)
** Current wind speed in m/s (hover to see current wind gust speed)